Location: Spruce Knob
(38.6995°N, 79.5330°W)
Time: 18:55:14
(UTC-05:00)

X-37B - Pass Details

Date: 05 December 2022
Orbit: 277 x 277 km, 45.0° (Epoch: 01 November)

Event Time Altitude Azimuth Distance (km) Brightness Sun altitude
Rises 18:27:44 0° 223° (SW) 1,897 5.1 -17.3°
Reaches altitude 10° 18:29:44 10° 211° (SSW) 1,089 3.5 -17.7°
Enters shadow 18:31:11 24° 182° (S) 621 1.8 -18.0°
